Temp_Advection
nan nan nan nan nan nan nan nan nan nan nan nan nan nan nan nan nan nan nan nan nan nan nan nan nan nan nan nan nan nan nan nan nan nan nan nan nan nan nan nan nan nan nan nan nan nan nan nan nan nan nan nan nan nan nan nan nan nan nan nan nan nan nan
nan -1 -0 -0 -0 1 0 -1 -1 -1 -1 -2 -3 -3 -1 -1 -1 -1 -1 -1 -1 -1 -1 -1 -0 0 1 -0 -2 -2 -1 -1 -0 -0 -2 -2 -1 -2 -1 1 1 -1 -2 -2 -3 -2 -2 -1 -1 -1 -1 -1 -0 0 0 0 0 0 0 -2 -5 -3 nan
nan -0 -0 -0 -1 0 1 0 -0 0 -0 -1 -2 -2 -2 -1 -1 -1 -1 -1 -1 -1 -1 -1 -1 0 1 0 -1 -1 -0 -1 -1 -1 -2 -1 -1 -2 -2 0 1 0 -1 -2 -3 -3 -2 -2 -2 -1 -1 -1 -1 -0 0 0 1 0 0 -0 -2 -4 nan
nan -0 -0 -0 -1 -1 -0 -0 -0 -0 -1 -1 -1 -1 -1 -1 -1 -1 -1 -1 -1 -1 -0 -1 -1 -0 0 0 -0 -0 0 -0 -1 -1 -1 -1 -1 -1 -1 -0 -0 -0 -0 -1 -4 -4 -3 -2 -2 -1 -1 -1 -1 -1 -0 -0 1 1 -0 0 -0 -3 nan
nan -0 -1 -0 -0 -1 -1 -1 -1 -1 -1 -1 -0 -0 -1 -1 -1 -1 -1 -1 -1 -1 -1 -1 -1 -0 0 -0 -1 -0 -0 -1 -0 -0 -0 -0 -0 -1 -1 -0 -1 -1 0 -0 -3 -5 -4 -3 -3 -3 -1 -1 -1 -1 -1 -0 0 0 0 0 0 -1 nan
nan -0 -1 -1 -0 -1 -1 -1 -1 -1 -1 -1 -1 -1 -0 -0 -0 -0 -1 -1 -1 -0 -0 -1 -1 -0 0 0 -1 -1 -1 -1 -0 0 0 0 -0 0 0 -0 -0 -0 -0 -0 -1 -3 -3 -4 -4 -4 -3 -1 -1 -1 -1 -0 0 0 0 0 0 -0 nan
nan -0 -0 -1 -0 -0 -0 -1 -1 -1 -1 -1 -1 -1 -1 -0 -0 -0 -0 0 0 0 -0 -1 -1 -0 -0 -0 -0 -1 -1 -1 -0 -0 -0 0 0 0 1 0 -0 0 0 -1 -1 -1 -2 -3 -4 -5 -4 -3 -1 -1 -2 -1 0 0 0 0 0 -0 nan
nan -1 -0 -0 -0 -0 -0 -1 -1 -1 -0 -0 -0 -0 -1 -1 -1 -1 -1 -0 0 0 -0 -1 -1 -1 -1 -1 -0 -0 -0 -0 0 -0 -0 0 1 0 0 0 1 1 1 -0 -1 -1 -2 -3 -3 -4 -4 -3 -2 -1 -1 -1 -1 -0 0 0 1 0 nan
nan -1 -1 -1 -1 -0 -0 -1 -1 -0 -0 -0 -0 -0 -1 -2 -2 -1 -2 -2 -1 -1 -1 -1 -1 -2 -1 -1 -0 -0 -0 -0 -0 0 -1 0 2 1 0 0 1 1 -0 -1 -1 -1 -2 -2 -2 -3 -4 -3 -2 -1 -1 -1 -1 0 0 -1 0 1 nan
nan -0 -1 -1 -1 -1 -1 -1 -1 -0 -1 -0 1 2 1 0 -1 -1 -1 -1 -2 -1 -1 -1 -1 -2 -2 -1 -0 -0 -0 -0 0 1 0 1 2 2 0 -0 0 -0 -0 -1 -1 -1 -1 -2 -2 -3 -3 -3 -2 -1 -1 -1 -1 0 0 -0 -0 1 nan
nan 0 -0 -0 -1 -1 -1 -1 -1 -1 -1 -1 1 2 2 1 0 0 0 -0 -1 -1 -1 -1 -1 -1 -1 -1 -0 -0 -0 -0 0 1 2 2 1 1 1 -0 -0 -0 -1 -1 -1 -1 -1 -1 -2 -2 -2 -2 -2 -2 -2 -1 -0 -0 0 0 0 -0 nan
nan -0 0 -0 -0 -0 -0 -1 -1 -1 -2 -1 -0 1 1 1 1 1 1 0 -1 -2 -2 -2 -1 -1 -1 -1 -1 -0 -0 -0 -0 0 1 1 1 0 -0 -0 0 1 -0 -1 -1 -1 -1 -1 -1 -2 -1 -2 -2 -2 -2 -1 -0 -0 0 0 -0 -0 nan
nan -0 -0 -0 -1 -0 -1 -1 -1 -1 -2 -1 -1 -0 0 1 1 1 0 -0 -0 -1 -1 -1 -0 -1 -2 -1 -1 -1 -1 -0 -0 -0 0 1 1 0 -1 -1 -1 1 1 1 0 -0 -0 -0 -1 -1 -1 -1 -2 -2 -2 -2 -1 -1 0 0 -0 0 nan
nan -1 -0 -0 -1 -1 -1 -1 -1 -1 -1 -1 -1 -1 -0 0 -0 -0 -1 -1 -0 -0 -0 0 1 1 -2 -2 -1 -1 -1 -1 -0 -0 1 1 1 1 -1 -2 -2 -1 1 2 1 0 -0 -0 -0 -1 -1 -1 -1 -2 -3 -3 -2 -1 0 0 -0 -0 nan
nan -1 -1 -0 -0 -1 -1 -1 -0 -1 -1 -1 -0 -0 -0 -0 -1 -1 -1 -1 -1 -1 -0 -0 0 1 -0 -1 -0 0 -0 -0 -1 -0 1 1 1 0 1 0 -1 -2 -1 1 1 1 1 1 -0 -1 -1 -1 -1 -1 -3 -3 -2 -2 -1 -0 -0 0 nan
nan -0 -1 -0 -0 -1 -1 -1 -0 -1 -1 -1 -0 -0 -0 -0 -1 -1 -1 -1 -1 -1 -1 -1 -1 -1 -0 -1 -1 -0 0 1 1 1 0 -0 -1 -1 0 0 -1 -2 -1 0 1 1 1 1 -0 -1 -2 -2 -1 -1 -2 -3 -2 -2 -3 -1 -0 0 nan
nan -0 -0 -0 0 -0 -1 -1 -1 -1 -1 -0 -0 -0 0 -0 -1 -1 -1 -2 -1 -1 -1 -1 -1 -1 -1 -1 -1 -1 -1 -0 1 2 2 1 -0 -1 -0 -0 -1 -0 -0 -0 0 0 -0 0 -0 -1 -2 -2 -1 -1 -1 -1 -1 -3 -3 -2 -1 -1 nan
nan -1 -0 -0 0 0 -1 -1 -1 -1 -1 -0 0 0 0 0 -1 -1 -1 -2 -2 -1 -1 -2 -1 -0 -0 -0 -0 -1 -1 -1 0 2 2 2 1 0 -1 -1 0 1 -0 -1 -0 0 -1 -0 0 -1 -2 -2 -1 -1 -1 -1 -2 -3 -3 -2 -2 -1 nan
nan -1 -1 -0 0 0 -0 -1 -1 -1 -1 -1 -0 0 0 0 -0 -1 -1 -1 -2 -1 -1 -1 -2 -1 -1 -1 -0 -1 -1 -0 1 1 1 1 2 1 -1 -2 1 2 1 -1 -1 -1 -1 -0 0 -0 -1 -1 -1 -1 -1 -0 -1 -2 -2 -3 -2 -1 nan
nan -1 -1 -0 0 0 0 -0 -1 -1 -0 -1 -0 0 0 1 0 -1 -1 -1 -1 -2 -1 -1 -1 -2 -2 -1 -1 -1 -1 -1 0 1 0 1 2 -0 -2 -1 2 2 0 -1 -1 -1 -1 -1 -1 -0 -0 -1 -1 -2 -1 -1 -1 -2 -2 -3 -2 -1 nan
nan -1 -1 -0 -0 -0 0 -0 -2 -2 -1 -1 -1 -0 0 1 1 1 -1 -1 -1 -1 -1 -1 -2 -2 -2 -1 -1 -0 -1 -1 -0 0 0 0 -0 -1 -1 1 2 1 0 -0 -0 -0 -1 -1 -1 -1 -1 -1 -1 -1 -2 -1 -1 -2 -2 -2 -2 -1 nan
nan -1 -1 -1 -1 -1 -1 -1 -2 -3 -2 -2 -2 -1 -0 0 1 1 -0 -1 -1 -1 -1 -2 -2 -2 -2 -1 -1 -0 -0 -0 -0 0 0 0 -0 -1 -0 1 1 1 1 0 -0 -0 -1 -1 -1 -1 -1 -1 -1 -2 -2 -1 -1 -1 -2 -2 -1 -0 nan
nan -1 -1 -2 -2 -2 -2 -2 -2 -2 -2 -1 -1 -2 -1 -1 -0 -0 -1 -1 -1 -1 -2 -2 -2 -2 -2 -2 -1 -0 0 -0 0 -0 -0 -0 -0 -0 0 1 0 0 0 -0 -1 -1 -1 -2 -2 -1 -0 -1 -1 -1 -1 -1 -1 -1 -2 -1 -1 -1 nan
nan -1 -2 -3 -3 -3 -2 -1 -2 -3 -2 -1 -1 -2 -2 -2 -2 -1 -1 -1 -1 -1 -2 -2 -2 -2 -2 -2 -1 -1 -0 -0 -0 -0 -1 -1 0 0 -0 -0 -0 -0 -0 -0 -1 -1 -1 -2 -1 -0 -0 -1 -1 -1 -1 -1 -1 -1 -1 -0 -0 -1 nan
nan -1 -2 -2 -3 -3 -2 -1 -1 -2 -2 -1 -1 -1 -2 -2 -2 -2 -1 -1 -1 -1 -1 -2 -2 -2 -2 -2 -2 -1 -1 -0 -0 -0 -0 -0 -0 -0 -0 -1 -0 -0 0 -0 -1 -0 -1 -1 -1 0 -0 -1 -0 -0 -1 -1 -0 -0 -0 -0 -1 -1 nan
nan -1 -1 -1 -1 -1 -2 -1 -1 -2 -2 -1 -1 -1 -1 -2 -2 -1 -1 -1 -1 -1 -1 -1 -1 -2 -2 -2 -1 -1 -1 -0 -0 -0 -0 -0 -1 -1 -1 -1 -1 -0 -0 -1 -0 1 -0 -1 -0 0 0 -0 0 -0 -1 -0 -0 -0 -0 -1 -1 -0 nan
nan 0 0 -0 -0 -0 -1 -1 -1 -2 -2 -1 -1 -1 -1 -1 -1 -1 -1 -1 -2 -1 -1 -1 -1 -1 -1 -1 -1 -1 -1 -1 -0 -0 -0 -0 -0 -1 -1 -1 -1 -1 -0 0 1 1 -0 -1 0 0 0 0 0 -0 -0 -0 -0 -0 -1 -1 -0 1 nan
nan 1 1 -0 -0 -1 -1 -2 -2 -2 -1 -0 -0 -0 0 0 -1 -0 -0 -1 -2 -1 -1 -1 -1 -1 -1 -1 -1 -1 -1 -0 -0 -0 -0 -0 0 -0 -0 -1 -1 -0 0 1 1 0 -0 -0 0 1 0 0 0 -0 -0 -0 -0 -0 -0 -0 1 1 nan
nan 1 1 0 -0 0 -0 -1 -2 -2 -1 -0 -0 -0 0 0 -0 0 0 -1 -2 -1 -1 -0 -0 -1 -2 -3 -3 -2 -2 -1 -1 -1 -0 -0 -0 -0 -0 -0 -0 -0 0 0 0 -0 -0 0 1 0 0 0 0 -0 -0 -0 -0 -0 -0 0 1 1 nan
nan 1 2 1 -0 0 1 1 -1 -2 -1 -0 -0 -1 -0 -0 -0 1 0 -1 -1 -1 -0 -1 -1 -2 -3 -3 -3 -4 -3 -3 -3 -2 -1 -1 -0 -0 -0 -0 -0 -0 0 -0 -0 -0 0 0 0 0 0 -0 0 0 0 0 0 -0 0 0 0 -0 nan
nan 1 1 1 0 -0 0 1 0 -0 -1 -0 -0 -1 -1 -1 -0 0 -0 -1 -1 -1 -1 -1 -2 -2 -2 -2 -2 -2 -3 -3 -3 -3 -2 -2 -1 -0 -0 -0 -0 -0 -0 -0 -0 -0 0 0 0 0 0 0 0 0 0 0 0 0 0 0 0 -0 nan
nan 0 0 1 1 0 0 -0 0 -0 -1 -1 -0 -1 -2 -1 -0 -0 -0 -1 -1 -1 -1 -2 -2 -1 -1 -1 -1 -1 -1 -2 -2 -2 -2 -2 -1 -0 -0 -0 -0 -0 -0 -0 -0 -0 0 0 0 0 0 0 0 0 0 -0 -0 -0 -0 -0 -0 -0 nan
nan 0 -0 0 0 0 0 -0 -0 -0 -0 -0 -1 -2 -2 -2 -0 0 -0 -0 -1 -1 -2 -2 -2 -1 -1 -0 -0 -0 -0 -0 -0 -1 -1 -1 -1 -1 -0 -0 -0 -0 -0 -0 -0 -0 0 0 0 0 0 0 0 0 0 0 -0 -0 -0 -0 -0 -0 nan
nan 1 0 -0 -0 -0 -0 -0 -0 -0 -0 -0 -1 -2 -3 -2 -0 0 0 0 -1 -1 -2 -2 -2 -1 -1 -1 -1 -1 -0 0 1 0 -0 -1 -1 -1 -1 -0 -0 -0 -0 -0 -0 -0 -0 0 0 0 0 0 0 0 -0 -0 -0 -0 -0 -0 -0 -0 nan
nan 0 0 -0 -1 -1 -1 -0 -0 -0 -0 -0 0 -1 -2 -2 -1 -1 -1 -1 -1 -1 -1 -1 -1 -1 -1 -1 -1 -1 -0 0 1 1 0 -0 -0 -0 -0 -0 -0 -0 -0 -0 -0 -0 -0 -0 0 0 0 0 0 -0 -0 -0 -0 -0 -0 -0 -0 -0 nan
nan nan nan nan nan nan nan nan nan nan nan nan nan nan nan nan nan nan nan nan nan nan nan nan nan nan nan nan nan nan nan nan nan nan nan nan nan nan nan nan nan nan nan nan nan nan nan nan nan nan nan nan nan nan nan nan nan nan nan nan nan nan nan
Wind_Speed
32 33 31 30 32 31 30 34 35 35 35 34 35 38 38 38 38 38 38 38 37 37 37 37 38 37 35 32 32 33 33 35 35 33 34 36 37 38 38 39 37 38 45 45 36 35 36 31 29 31 31 31 32 31 29 30 30 30 33 39 43 41 39
31 32 32 32 34 33 31 33 34 33 32 32 35 39 39 38 39 39 39 39 39 38 38 38 38 37 35 32 35 37 36 36 36 35 36 36 36 38 38 37 37 36 39 41 37 36 39 35 31 32 31 30 32 32 30 31 31 29 30 34 40 42 39
32 33 34 36 38 39 37 37 37 36 36 38 40 41 41 40 40 40 40 40 39 39 38 38 39 38 37 36 37 38 37 36 36 35 36 36 35 37 38 37 37 38 39 41 39 37 39 38 34 33 33 30 31 32 32 32 31 30 31 32 36 41 40
35 35 37 38 39 40 40 39 40 40 40 41 41 42 42 42 42 41 41 41 40 39 38 38 39 38 37 37 37 37 36 35 34 33 33 34 34 35 37 37 37 37 38 39 40 40 42 41 35 33 35 33 31 32 33 33 32 30 30 31 33 37 40
38 38 39 40 40 40 40 40 40 40 41 41 41 42 43 43 43 42 42 41 40 40 39 38 38 37 35 34 34 35 35 34 33 33 32 33 33 33 34 35 36 37 37 36 39 41 43 45 42 37 36 35 33 33 32 32 33 32 30 31 31 32 39
39 40 40 41 41 41 41 41 41 41 42 42 42 42 42 42 42 42 41 40 40 38 37 36 36 34 32 31 32 33 34 34 33 33 33 34 33 33 33 35 36 37 39 39 41 42 40 42 46 43 39 36 33 34 34 32 32 32 30 30 30 30 37
39 39 40 41 41 41 41 41 42 42 43 43 42 42 42 41 40 39 39 38 37 36 35 35 34 34 33 32 33 35 35 35 34 35 36 35 35 35 34 36 37 37 39 41 42 42 38 37 41 42 42 39 33 34 36 34 34 34 30 28 27 27 30
39 39 40 40 40 40 41 41 42 43 43 43 42 41 40 39 37 37 36 36 35 35 35 36 36 37 37 36 36 37 37 36 36 38 39 38 38 38 38 38 38 36 36 36 36 38 37 33 33 36 39 39 35 35 36 34 35 36 33 30 27 24 24
39 39 40 40 40 40 40 41 42 43 42 42 41 40 39 39 39 39 39 38 38 38 39 41 41 41 41 40 39 39 39 39 39 40 42 42 41 40 40 40 38 34 31 31 32 34 33 31 30 31 33 37 37 37 36 35 35 34 32 32 31 27 24
39 39 40 40 40 40 41 42 42 41 41 39 37 36 37 38 39 40 40 41 41 41 42 43 43 44 44 44 43 42 42 42 42 42 43 44 43 42 42 42 41 37 34 33 34 34 32 31 32 31 31 35 38 37 35 35 36 34 30 29 33 32 26
39 39 39 40 41 41 41 42 42 41 39 37 33 32 32 34 36 37 38 40 41 41 42 42 43 44 45 45 45 44 44 44 44 44 44 45 44 44 43 44 45 42 38 35 35 35 33 32 34 32 29 32 35 36 36 36 34 35 32 28 30 33 28
39 39 40 40 40 41 41 42 41 40 38 35 31 28 28 30 34 37 38 39 40 41 42 43 43 43 43 44 44 44 45 45 45 46 46 47 47 46 46 47 49 47 43 38 37 37 36 35 36 34 31 31 32 33 34 35 35 36 34 29 28 31 28
40 40 40 40 41 41 41 41 41 39 36 32 29 27 27 28 32 37 38 38 39 40 41 41 41 42 43 44 44 45 47 48 48 49 50 50 50 49 48 49 49 50 49 46 43 41 41 40 40 39 36 34 32 31 33 35 36 37 35 29 28 30 28
40 40 40 40 41 41 42 41 39 36 33 30 28 28 28 29 33 36 37 38 38 38 38 38 39 42 44 45 46 48 50 51 50 50 50 50 50 50 50 51 50 50 50 49 49 49 49 48 45 43 42 38 33 35 39 38 35 35 35 34 32 32 31
40 40 40 40 40 40 41 40 36 34 32 30 28 28 28 30 32 33 34 35 35 35 36 38 40 42 44 46 47 48 49 50 51 50 49 49 49 49 49 51 51 50 49 49 49 51 53 53 51 49 47 43 38 39 43 44 40 35 35 37 37 36 36
40 40 39 39 39 39 39 38 35 33 32 30 28 27 28 30 31 31 32 33 34 36 38 40 42 45 47 48 48 48 47 47 48 51 52 51 50 49 48 49 50 49 47 46 46 47 48 49 51 53 53 49 45 42 40 42 44 42 39 39 39 39 39
39 39 39 39 38 37 37 38 36 34 32 30 27 26 28 29 29 30 32 34 35 38 40 42 45 47 49 50 49 47 44 42 42 45 50 53 51 50 49 50 49 47 45 43 43 44 45 44 45 49 51 50 49 48 43 39 41 45 44 40 40 41 37
40 39 38 38 37 36 36 37 36 34 32 28 25 24 26 28 29 31 34 35 38 41 44 46 47 47 47 48 47 44 40 37 36 39 45 49 49 50 50 49 47 46 45 43 41 42 44 44 44 45 47 47 48 49 48 45 45 47 45 41 42 42 35
39 39 37 37 36 35 35 37 36 34 30 26 22 22 24 28 32 34 35 36 41 45 45 45 45 45 45 44 42 39 36 34 35 38 42 46 48 50 49 46 44 45 45 44 42 41 41 42 43 45 46 47 48 48 48 49 49 49 47 42 41 41 36
38 38 37 36 36 36 36 37 37 34 28 25 22 21 24 30 33 34 35 38 42 43 41 40 41 42 41 38 35 34 35 35 34 33 35 38 43 45 44 41 41 42 43 43 42 41 39 38 38 40 42 44 46 47 47 48 49 51 50 44 40 41 40
36 36 36 35 36 37 37 38 38 35 31 28 25 23 26 31 33 33 36 39 38 36 36 38 39 37 35 33 32 31 31 30 28 26 25 27 32 35 36 38 40 41 41 41 41 41 40 38 35 35 36 38 41 43 43 43 45 49 51 48 44 42 40
35 34 35 35 36 38 40 41 41 39 37 33 28 26 28 31 31 32 35 36 34 34 36 38 38 36 33 30 29 28 26 23 21 22 22 23 26 30 33 35 37 38 39 39 39 39 39 38 36 33 32 34 36 39 40 39 41 46 50 51 48 45 42
35 34 35 37 38 40 42 42 42 41 39 34 30 29 30 30 29 31 35 34 32 33 38 41 39 35 33 30 28 27 24 22 21 21 22 24 27 29 31 33 35 37 38 37 37 37 37 37 35 31 30 31 33 35 36 36 37 43 47 47 46 45 44
35 34 37 39 40 42 41 40 41 42 38 33 31 31 33 32 31 34 36 33 30 33 39 40 37 33 31 29 27 24 22 21 20 20 21 23 24 25 27 31 34 36 38 38 38 37 36 35 32 28 27 29 30 30 30 31 33 37 42 43 43 43 41
35 36 38 39 39 41 42 41 41 42 38 33 31 34 36 35 34 37 35 30 31 37 39 35 32 30 28 26 24 22 20 18 18 18 19 20 22 22 23 27 30 31 33 36 37 36 36 34 30 27 27 28 26 25 27 29 30 32 34 36 37 38 38
35 36 37 37 35 36 40 42 42 40 37 33 33 38 39 36 36 38 35 30 35 40 37 31 28 26 24 23 20 19 17 16 17 18 19 19 20 20 20 22 25 26 28 31 33 35 34 30 25 25 26 26 23 22 25 29 29 28 29 30 32 34 37
34 35 36 36 32 32 37 41 40 38 35 34 35 40 40 37 40 41 35 33 39 40 34 28 25 22 20 19 17 16 15 15 15 16 17 17 17 19 19 18 20 23 28 30 30 31 30 24 21 20 20 21 22 21 21 25 28 29 28 29 30 33 35
33 34 35 33 31 32 37 39 37 35 34 33 35 38 37 37 41 39 33 34 38 36 30 25 22 21 19 17 15 14 14 14 14 15 15 15 15 18 19 16 13 16 22 23 21 22 22 20 20 21 20 19 20 19 18 21 25 28 29 28 30 32 32
31 32 32 30 30 33 35 35 35 34 31 29 30 32 33 35 37 33 30 32 34 30 26 23 21 22 22 21 18 16 14 14 14 14 14 14 12 13 15 13 8 6 10 14 16 18 19 19 20 22 22 20 18 19 18 19 21 23 25 26 29 31 29
26 26 26 27 29 30 29 30 32 32 28 26 26 28 29 31 31 28 28 30 28 23 22 21 21 24 27 27 26 24 19 16 16 14 14 14 11 10 13 13 7 2 5 11 15 16 16 16 16 18 19 18 18 19 20 19 19 20 21 24 27 28 26
21 21 22 24 26 27 26 27 28 28 26 24 24 26 28 29 27 25 25 25 24 20 19 21 22 25 27 28 30 29 24 20 17 15 13 12 10 7 8 11 9 6 6 10 13 13 12 12 13 14 14 15 17 19 21 20 20 19 20 23 27 26 23
21 20 20 22 23 23 24 25 25 25 24 23 22 26 28 27 25 23 21 21 20 19 19 21 23 24 26 28 30 31 28 24 20 16 13 12 10 6 4 5 8 8 7 9 12 13 11 11 13 14 14 15 16 17 18 19 20 20 20 21 24 25 24
23 22 22 22 22 22 23 23 22 22 22 20 21 25 28 26 23 21 19 18 19 20 22 23 24 24 25 27 29 30 30 28 24 19 14 11 10 7 5 4 4 5 7 7 10 12 13 13 14 15 15 16 16 16 16 17 18 20 20 20 22 25 24
26 24 24 24 24 23 22 22 22 22 21 20 21 25 27 25 21 18 17 19 21 22 24 25 26 26 26 27 28 30 31 30 28 23 17 12 8 6 6 5 3 5 8 8 8 11 13 14 14 14 14 15 15 15 15 15 17 20 21 21 22 23 23
31 28 26 26 25 25 24 23 22 22 21 20 21 23 25 24 21 18 18 20 22 23 24 25 27 28 27 27 28 29 30 30 29 26 21 16 10 5 4 6 4 5 8 9 10 11 12 13 13 13 13 13 14 15 15 15 16 19 21 23 23 22 21
34 31 28 27 26 26 25 23 22 21 21 20 19 21 23 23 22 21 22 22 23 24 24 24 26 27 27 27 28 28 28 29 28 27 24 19 14 9 4 4 5 6 7 9 11 12 13 14 14 13 13 13 13 15 15 15 16 18 20 25 27 24 21
Wind_Direction
314 315 313 310 311 309 308 310 309 308 308 304 303 305 303 302 301 299 298 297 296 295 294 293 292 290 288 285 282 281 281 280 278 276 273 271 269 265 260 258 257 260 265 265 263 266 269 269 269 268 264 264 264 262 260 257 255 257 261 267 271 272 271
314 314 312 311 311 310 308 307 307 307 305 303 303 304 303 301 300 299 298 296 295 295 294 292 291 289 287 284 283 284 284 282 280 278 276 275 274 271 268 264 261 260 264 267 264 263 266 267 266 267 265 262 261 261 260 258 254 252 253 260 269 270 269
315 314 313 312 312 312 310 309 308 307 306 306 305 304 303 302 300 299 298 296 295 294 292 291 289 287 286 286 285 285 284 282 282 281 280 279 278 276 274 271 268 264 264 267 265 261 263 265 263 263 265 263 261 261 259 257 254 252 251 254 261 266 264
316 315 314 313 312 311 310 309 308 307 306 305 305 304 303 302 300 299 297 296 295 293 291 289 287 286 286 285 284 283 283 283 283 282 282 281 280 278 277 276 274 271 268 269 269 263 260 261 262 262 263 262 262 261 258 255 253 251 251 251 252 259 264
317 316 314 313 312 311 309 308 307 306 304 304 303 302 301 301 300 299 297 296 295 293 291 289 287 286 285 284 282 281 282 283 283 283 283 281 280 280 279 279 277 275 273 271 270 268 263 261 260 260 262 261 260 260 259 254 251 250 251 252 247 252 265
316 315 314 313 312 311 310 308 307 305 304 303 303 302 301 300 300 299 297 295 293 292 290 289 287 286 285 283 282 282 282 283 284 284 283 281 281 280 280 281 280 279 278 275 273 272 269 264 261 258 258 259 256 256 257 255 252 250 250 250 246 248 262
315 314 314 313 312 311 310 308 306 305 305 304 304 303 302 300 299 297 296 294 293 293 292 292 291 290 288 286 284 284 284 285 285 285 284 283 283 283 282 281 282 281 280 277 275 273 270 266 264 259 254 255 256 254 253 252 251 249 245 246 247 246 253
314 314 314 313 312 310 309 307 306 305 305 305 305 304 303 302 301 299 297 295 295 295 295 294 294 293 291 289 287 287 286 286 286 285 284 284 283 283 282 281 281 279 276 273 271 271 269 266 265 260 253 250 252 251 249 246 247 247 244 245 249 246 244
315 315 315 314 312 310 308 307 305 305 306 307 307 307 307 305 304 302 300 299 298 297 297 297 296 294 293 292 291 290 288 288 287 286 285 285 284 281 279 278 275 269 264 265 265 265 267 265 262 258 251 245 244 245 246 246 246 247 244 243 247 248 244
316 316 316 315 313 311 310 308 307 307 308 308 308 307 302 297 295 294 293 293 294 294 294 295 294 294 295 295 294 292 290 289 288 285 283 282 281 277 274 273 271 266 259 259 261 262 263 262 260 256 250 245 242 241 245 246 244 245 244 242 245 247 243
317 317 317 316 314 313 312 310 310 310 309 308 307 303 297 293 292 292 291 289 290 291 292 292 292 291 292 292 291 290 289 287 285 282 279 277 274 270 267 265 265 264 259 254 255 259 258 256 257 257 252 247 244 241 242 244 242 244 244 238 238 244 243
318 318 318 318 316 315 313 311 311 311 309 308 306 300 296 297 297 297 294 291 291 292 293 293 292 291 291 290 288 288 287 286 283 281 279 277 273 268 265 264 262 260 256 249 250 254 254 252 253 255 252 247 245 243 243 243 242 241 242 237 233 242 243
319 319 319 320 319 317 314 312 312 312 311 310 307 300 297 297 296 296 294 292 291 291 291 291 291 291 292 292 291 291 289 286 283 281 278 276 275 270 266 264 263 261 258 253 251 251 251 250 250 252 251 247 246 246 245 246 245 239 237 237 235 239 243
320 320 321 322 320 317 314 313 313 313 312 311 307 302 298 296 294 292 291 290 290 290 291 293 293 293 293 293 292 291 289 287 285 282 279 276 274 271 268 265 262 261 259 256 254 253 253 252 250 250 251 249 248 246 243 246 250 243 236 236 237 240 243
321 321 322 322 320 317 314 314 315 314 313 311 307 302 301 298 295 292 291 291 293 296 298 299 299 297 294 293 291 289 288 289 287 284 281 278 275 272 269 267 264 262 261 259 256 255 255 254 252 249 250 250 249 248 245 245 248 249 245 242 241 244 244
322 323 323 322 320 318 316 315 316 316 314 313 309 305 303 302 301 300 299 300 303 304 305 303 302 302 299 297 293 289 287 286 284 282 278 277 276 274 270 267 265 264 264 262 259 258 256 256 253 250 249 249 248 248 249 248 249 252 252 246 243 245 245
324 324 324 322 321 321 319 317 317 319 319 316 312 309 310 310 310 308 307 309 310 309 308 307 306 306 304 301 297 293 288 283 279 277 272 269 270 271 270 268 266 265 264 261 260 260 260 259 255 250 248 248 247 245 246 246 247 248 249 246 241 241 242
325 325 324 322 321 322 321 319 320 323 323 319 315 316 320 319 317 316 314 315 316 315 313 311 310 310 308 303 298 295 290 283 277 274 269 265 264 264 265 266 266 266 264 261 259 258 257 257 255 251 249 248 247 246 244 241 241 242 244 245 242 238 239
326 324 323 322 321 323 323 323 324 326 328 327 324 324 327 326 322 320 318 316 316 316 313 308 308 311 311 307 301 296 291 286 281 275 270 265 261 259 260 263 265 264 263 263 261 259 258 257 255 252 251 250 248 248 244 240 240 240 240 242 240 236 235
325 323 322 322 322 324 326 328 329 331 334 337 333 329 332 331 326 321 317 315 314 313 309 306 306 309 310 307 301 295 291 288 284 277 271 265 260 257 258 260 261 260 260 261 263 263 262 261 257 254 253 252 250 248 245 242 241 239 237 236 236 235 236
325 323 323 323 324 327 330 334 336 338 342 345 338 333 335 336 330 324 320 318 315 310 307 306 306 307 309 306 299 293 289 286 278 269 267 266 261 258 258 257 258 259 259 259 261 263 263 261 258 254 252 251 249 248 246 243 240 237 234 232 233 235 236
328 326 324 326 329 331 334 337 339 339 342 343 338 335 337 336 333 329 326 322 315 310 309 310 309 310 311 310 304 298 292 284 275 270 268 264 258 256 257 257 256 257 256 254 254 256 256 257 257 254 249 247 246 246 246 243 239 235 232 230 233 236 236
331 330 330 332 333 334 335 336 336 337 339 339 337 337 337 335 333 332 328 322 315 312 315 318 317 314 312 309 306 304 298 290 287 285 276 265 259 257 258 258 255 253 250 248 247 246 247 252 255 252 246 244 244 244 245 242 236 233 231 230 233 236 235
335 335 335 335 334 334 334 332 331 333 337 338 338 338 338 338 335 332 328 322 315 315 320 320 317 313 310 307 305 305 300 294 292 290 283 276 273 270 265 259 256 253 248 244 244 244 245 250 251 244 240 243 244 242 239 236 232 230 229 229 232 235 234
338 336 334 332 330 329 330 329 328 331 335 340 340 340 342 341 334 330 329 323 316 320 324 321 314 310 308 306 306 307 306 301 299 299 297 293 290 285 275 264 259 254 246 241 241 241 243 246 243 237 237 241 239 234 234 234 231 229 228 228 231 234 235
335 333 331 328 323 321 323 326 327 329 335 340 340 341 344 341 332 330 332 325 319 323 326 322 316 313 310 307 306 305 305 303 301 303 303 301 301 303 293 275 262 250 238 235 235 234 234 236 234 233 237 236 231 226 229 232 230 228 227 226 226 227 229
330 328 327 324 320 316 317 322 325 327 334 339 339 341 344 339 331 332 334 325 321 326 328 324 323 322 316 309 299 290 289 289 291 298 303 307 319 328 321 298 274 252 236 229 227 226 226 228 228 228 230 228 225 223 221 221 223 225 223 221 222 225 226
326 327 325 320 316 315 318 321 324 328 333 337 337 339 340 334 329 332 332 324 322 325 327 327 331 332 329 322 307 294 289 287 288 294 300 306 321 334 333 321 295 258 232 218 212 213 217 222 226 227 228 228 227 223 216 212 215 219 219 219 221 221 220
323 324 323 318 314 316 320 321 322 326 330 330 330 333 333 327 325 327 327 320 319 324 330 336 346 353 353 352 343 329 316 305 298 295 298 303 315 335 340 334 313 258 214 203 204 211 217 224 229 231 234 234 228 221 215 209 206 209 214 219 222 219 215
321 319 319 316 314 316 319 317 317 321 324 322 322 326 324 320 319 321 320 317 318 326 337 345 356 5 7 7 3 356 344 330 317 307 303 304 307 327 343 342 331 278 206 210 214 218 223 228 231 233 234 231 225 222 219 212 202 199 202 208 210 209 208
322 317 314 316 317 317 317 315 316 320 321 318 321 324 321 318 320 322 321 321 326 335 346 354 1 6 7 9 10 6 359 351 339 324 314 311 305 309 338 347 338 307 252 226 217 215 222 226 227 229 230 227 223 222 221 215 207 200 199 202 204 202 202
326 321 318 320 321 320 320 319 321 322 320 317 322 324 320 319 325 327 325 329 339 349 359 3 5 5 5 8 11 10 7 4 356 343 330 320 310 294 297 334 335 317 284 246 225 219 222 226 228 229 229 228 225 219 216 214 212 207 202 202 205 207 207
332 330 327 326 326 326 325 324 325 324 321 321 327 328 323 323 328 331 332 341 352 2 7 8 7 6 5 8 10 10 11 11 7 0 351 335 318 298 268 260 287 299 286 263 241 233 232 237 243 242 237 233 230 222 212 209 210 210 206 202 205 211 213
334 334 332 330 330 331 331 331 331 331 331 335 337 330 324 325 328 333 342 353 1 7 9 8 7 6 6 7 9 10 11 13 13 11 6 356 338 304 269 248 260 290 279 259 247 245 242 242 247 249 243 234 227 221 213 208 207 209 208 205 205 209 210
332 334 334 333 332 334 336 337 337 337 341 345 340 329 325 329 333 340 351 359 2 5 6 6 6 6 5 6 8 9 11 12 15 16 15 13 11 351 272 241 244 282 276 258 248 245 242 239 241 246 247 237 222 214 210 207 207 207 207 206 202 199 200
329 331 333 333 334 335 336 338 341 343 345 345 338 332 334 340 346 351 356 359 1 2 2 3 3 4 5 6 6 8 10 12 14 17 19 21 25 26 1 259 242 247 255 256 251 245 243 243 244 249 252 241 224 216 212 208 208 207 205 205 202 198 198
Height
1454 1451 1448 1446 1443 1441 1438 1435 1433 1431 1428 1426 1423 1422 1420 1417 1416 1413 1411 1410 1408 1407 1405 1403 1401 1400 1399 1398 1397 1396 1395 1394 1394 1393 1392 1392 1391 1391 1392 1392 1392 1387 1378 1379 1385 1383 1380 1383 1384 1382 1382 1382 1382 1380 1379 1379 1380 1380 1379 1377 1377 1379 1379
1450 1447 1445 1442 1439 1437 1434 1432 1429 1427 1424 1421 1419 1417 1415 1413 1411 1408 1406 1404 1402 1401 1400 1398 1396 1394 1394 1393 1391 1390 1389 1388 1388 1388 1386 1386 1386 1385 1385 1386 1385 1383 1377 1374 1378 1379 1376 1377 1379 1377 1376 1378 1377 1376 1376 1375 1374 1375 1375 1374 1373 1373 1375
1447 1444 1441 1438 1435 1432 1430 1427 1424 1422 1419 1417 1414 1411 1409 1408 1406 1403 1401 1399 1397 1396 1395 1393 1391 1389 1389 1388 1386 1384 1384 1383 1382 1382 1381 1380 1381 1379 1378 1379 1379 1377 1373 1370 1372 1375 1372 1371 1373 1372 1371 1373 1373 1372 1372 1371 1369 1370 1370 1370 1369 1368 1369
1443 1440 1437 1434 1431 1428 1426 1423 1420 1417 1415 1412 1409 1406 1404 1402 1400 1397 1395 1393 1391 1390 1389 1387 1385 1384 1383 1382 1380 1378 1378 1378 1377 1377 1376 1375 1375 1374 1373 1373 1372 1371 1369 1366 1365 1367 1367 1365 1367 1367 1366 1367 1368 1367 1366 1366 1365 1364 1364 1365 1365 1363 1363
1440 1437 1433 1430 1427 1424 1421 1418 1415 1412 1410 1407 1405 1402 1399 1396 1394 1392 1389 1387 1385 1384 1382 1381 1379 1378 1378 1377 1375 1373 1373 1372 1372 1372 1371 1370 1369 1369 1368 1367 1366 1365 1364 1362 1359 1359 1361 1360 1360 1361 1361 1361 1363 1362 1361 1361 1360 1359 1359 1359 1359 1358 1357
1436 1433 1429 1426 1422 1419 1416 1413 1410 1407 1404 1402 1400 1397 1394 1391 1388 1386 1384 1381 1380 1378 1377 1375 1373 1373 1373 1372 1370 1369 1368 1367 1367 1366 1365 1364 1364 1364 1363 1362 1360 1359 1358 1356 1353 1352 1354 1353 1353 1354 1355 1356 1358 1357 1356 1356 1355 1353 1354 1355 1354 1353 1352
1432 1428 1425 1421 1418 1415 1411 1408 1405 1402 1399 1396 1394 1391 1388 1386 1383 1381 1378 1376 1374 1372 1371 1369 1368 1367 1367 1366 1365 1363 1363 1362 1362 1360 1359 1359 1358 1358 1358 1356 1355 1354 1352 1349 1347 1346 1347 1347 1347 1348 1348 1350 1352 1352 1351 1352 1350 1347 1348 1350 1349 1348 1348
1427 1424 1421 1417 1414 1410 1407 1403 1400 1397 1394 1391 1388 1385 1382 1380 1378 1375 1372 1370 1368 1367 1365 1363 1362 1361 1360 1360 1359 1358 1357 1356 1356 1355 1353 1352 1352 1352 1351 1350 1349 1348 1347 1344 1342 1340 1340 1341 1341 1341 1342 1344 1346 1346 1344 1344 1345 1343 1342 1345 1345 1343 1343
1423 1419 1416 1412 1409 1406 1402 1398 1395 1392 1389 1386 1383 1379 1376 1373 1371 1369 1366 1364 1362 1360 1359 1357 1356 1354 1353 1353 1353 1352 1351 1350 1349 1348 1346 1346 1346 1346 1345 1344 1343 1343 1342 1340 1338 1335 1335 1335 1335 1335 1336 1338 1339 1339 1338 1339 1341 1339 1337 1339 1341 1339 1338
1418 1415 1411 1407 1404 1400 1397 1393 1390 1387 1384 1382 1379 1376 1373 1370 1368 1365 1362 1360 1357 1355 1353 1351 1349 1347 1346 1345 1345 1344 1343 1342 1342 1341 1340 1339 1339 1339 1338 1337 1336 1336 1336 1335 1333 1331 1330 1330 1328 1328 1330 1331 1332 1333 1334 1334 1335 1334 1332 1333 1335 1334 1333
1413 1410 1406 1403 1398 1395 1391 1387 1384 1382 1379 1377 1376 1374 1371 1368 1364 1362 1359 1356 1354 1351 1349 1347 1345 1342 1340 1339 1338 1337 1336 1335 1335 1334 1334 1333 1332 1332 1331 1330 1328 1328 1328 1328 1326 1325 1326 1324 1321 1322 1325 1325 1326 1328 1329 1329 1330 1330 1329 1328 1328 1328 1328
1409 1405 1402 1398 1393 1390 1386 1382 1379 1377 1373 1372 1371 1369 1367 1364 1361 1358 1355 1352 1349 1346 1344 1342 1339 1337 1335 1333 1332 1330 1329 1328 1327 1327 1327 1326 1325 1325 1325 1324 1322 1321 1321 1321 1320 1318 1319 1318 1316 1317 1319 1320 1321 1322 1324 1325 1325 1325 1324 1323 1322 1323 1324
1404 1400 1397 1393 1388 1384 1380 1377 1374 1371 1369 1367 1366 1364 1363 1360 1356 1353 1349 1347 1344 1342 1339 1337 1334 1331 1329 1327 1325 1323 1322 1320 1319 1318 1318 1317 1316 1316 1316 1316 1315 1315 1315 1314 1313 1311 1310 1311 1312 1312 1312 1314 1316 1318 1319 1319 1318 1319 1319 1318 1318 1319 1320
1399 1395 1392 1388 1384 1379 1375 1371 1369 1366 1364 1363 1361 1359 1358 1355 1351 1347 1344 1341 1339 1337 1334 1332 1329 1326 1323 1320 1319 1316 1314 1311 1310 1309 1308 1307 1306 1305 1305 1305 1305 1306 1307 1307 1307 1304 1301 1303 1306 1305 1305 1308 1312 1312 1312 1312 1312 1313 1314 1313 1314 1316 1317
1394 1391 1387 1384 1379 1374 1369 1366 1364 1362 1360 1358 1356 1354 1352 1348 1345 1342 1339 1336 1334 1331 1328 1325 1323 1320 1316 1313 1311 1309 1307 1304 1301 1299 1297 1296 1296 1295 1295 1295 1295 1296 1297 1297 1297 1296 1295 1296 1299 1299 1300 1303 1306 1306 1305 1306 1307 1308 1310 1310 1310 1311 1312
1390 1386 1382 1379 1375 1370 1365 1362 1360 1358 1355 1353 1351 1349 1346 1342 1339 1336 1333 1330 1328 1325 1322 1319 1316 1312 1308 1305 1302 1300 1299 1297 1294 1291 1288 1286 1286 1286 1286 1286 1286 1287 1287 1288 1288 1288 1288 1289 1290 1292 1293 1295 1298 1299 1300 1302 1303 1303 1304 1305 1305 1305 1306
1386 1382 1378 1374 1370 1366 1361 1357 1355 1353 1351 1348 1346 1344 1341 1337 1334 1331 1328 1325 1322 1319 1316 1312 1309 1305 1301 1296 1292 1290 1288 1287 1286 1284 1280 1278 1278 1278 1278 1277 1278 1279 1280 1281 1281 1281 1281 1281 1282 1284 1285 1287 1290 1292 1295 1298 1297 1296 1298 1299 1298 1298 1300
1382 1378 1375 1370 1366 1363 1358 1353 1351 1349 1346 1344 1342 1339 1336 1333 1329 1326 1323 1319 1316 1312 1309 1304 1301 1298 1294 1288 1284 1281 1279 1278 1277 1276 1274 1272 1270 1270 1270 1270 1271 1272 1272 1273 1274 1274 1274 1274 1275 1277 1278 1280 1281 1284 1288 1290 1289 1290 1293 1293 1292 1293 1296
1378 1374 1371 1367 1363 1359 1355 1350 1347 1345 1342 1339 1337 1335 1332 1329 1326 1322 1318 1314 1311 1306 1303 1299 1294 1290 1287 1282 1277 1274 1272 1271 1270 1268 1267 1265 1264 1263 1263 1263 1264 1264 1265 1265 1266 1267 1267 1268 1269 1270 1272 1273 1274 1276 1279 1282 1283 1285 1287 1287 1287 1288 1291
1374 1370 1366 1363 1359 1355 1352 1347 1343 1340 1337 1334 1332 1331 1329 1326 1322 1318 1314 1311 1307 1302 1298 1294 1290 1285 1281 1277 1273 1269 1267 1265 1263 1261 1260 1259 1258 1258 1257 1257 1257 1258 1259 1259 1259 1260 1261 1262 1263 1264 1265 1266 1267 1268 1270 1273 1276 1278 1280 1281 1282 1283 1285
1371 1366 1362 1359 1355 1350 1347 1343 1339 1335 1332 1330 1328 1326 1325 1322 1318 1315 1312 1308 1303 1299 1294 1290 1285 1281 1276 1272 1268 1265 1262 1259 1256 1255 1255 1253 1253 1252 1251 1251 1252 1253 1253 1254 1255 1255 1255 1256 1257 1258 1259 1260 1261 1262 1263 1265 1267 1269 1272 1275 1276 1278 1280
1367 1363 1358 1354 1351 1346 1342 1339 1335 1332 1328 1326 1324 1322 1320 1318 1314 1311 1309 1305 1299 1295 1290 1285 1280 1276 1271 1267 1263 1260 1257 1254 1252 1251 1250 1249 1248 1247 1246 1246 1247 1248 1248 1249 1250 1250 1250 1251 1251 1252 1253 1254 1255 1256 1257 1259 1260 1262 1265 1268 1271 1274 1276
1363 1358 1354 1350 1346 1343 1339 1335 1332 1330 1326 1323 1320 1318 1315 1313 1310 1307 1305 1301 1295 1291 1285 1280 1275 1271 1266 1263 1259 1256 1253 1251 1249 1248 1246 1245 1244 1243 1243 1243 1244 1244 1244 1244 1244 1244 1245 1245 1245 1246 1247 1248 1249 1250 1251 1253 1255 1257 1260 1264 1267 1270 1272
1359 1355 1350 1346 1342 1339 1336 1333 1329 1327 1324 1321 1317 1314 1311 1308 1305 1303 1300 1296 1292 1287 1282 1276 1271 1267 1263 1259 1256 1253 1250 1247 1246 1244 1242 1240 1239 1239 1239 1238 1238 1238 1238 1238 1239 1239 1240 1240 1241 1242 1243 1244 1245 1246 1247 1249 1250 1252 1256 1260 1263 1265 1268
1356 1352 1348 1344 1340 1336 1333 1330 1327 1323 1321 1318 1314 1311 1307 1304 1301 1299 1296 1292 1287 1282 1278 1273 1268 1264 1260 1256 1253 1249 1246 1244 1243 1241 1239 1237 1235 1234 1233 1232 1231 1231 1231 1232 1233 1234 1234 1235 1236 1237 1239 1240 1242 1243 1244 1245 1247 1249 1252 1256 1259 1262 1264
1354 1350 1347 1343 1339 1335 1331 1327 1324 1321 1318 1315 1311 1307 1303 1300 1297 1294 1291 1287 1282 1277 1273 1269 1265 1261 1256 1253 1250 1247 1244 1242 1240 1238 1236 1234 1232 1230 1228 1226 1225 1225 1225 1225 1226 1227 1228 1230 1232 1234 1235 1237 1238 1239 1240 1242 1243 1246 1248 1251 1255 1257 1259
1352 1349 1345 1341 1338 1334 1329 1325 1322 1318 1315 1312 1309 1304 1300 1297 1294 1290 1287 1282 1277 1273 1270 1266 1262 1258 1254 1250 1247 1245 1242 1240 1238 1236 1234 1232 1230 1227 1224 1222 1220 1220 1220 1220 1221 1223 1225 1227 1230 1231 1233 1234 1235 1237 1238 1239 1241 1243 1245 1248 1251 1253 1254
1350 1347 1344 1340 1336 1332 1327 1323 1320 1317 1314 1311 1307 1303 1300 1296 1292 1289 1285 1280 1275 1271 1268 1264 1259 1255 1251 1247 1244 1242 1239 1237 1235 1233 1231 1230 1228 1225 1222 1220 1218 1217 1218 1219 1220 1222 1223 1225 1227 1229 1230 1232 1233 1234 1236 1237 1238 1240 1242 1245 1247 1249 1251
1349 1346 1343 1340 1335 1330 1325 1321 1317 1315 1313 1311 1308 1305 1301 1296 1292 1289 1284 1279 1274 1271 1266 1262 1258 1253 1249 1245 1242 1238 1236 1234 1232 1230 1228 1227 1226 1224 1221 1220 1218 1217 1218 1219 1219 1221 1222 1224 1225 1227 1229 1230 1232 1233 1234 1235 1236 1238 1240 1242 1244 1246 1248
1349 1346 1343 1338 1334 1330 1325 1321 1316 1313 1311 1309 1307 1304 1300 1296 1292 1288 1283 1277 1274 1270 1265 1261 1257 1253 1249 1245 1241 1238 1235 1232 1230 1228 1226 1225 1224 1223 1221 1220 1219 1219 1219 1219 1219 1221 1222 1223 1225 1226 1227 1228 1230 1231 1232 1233 1235 1236 1238 1240 1242 1244 1246
1348 1345 1341 1336 1331 1327 1324 1320 1315 1312 1309 1307 1304 1301 1297 1293 1289 1285 1281 1276 1272 1268 1264 1260 1257 1253 1249 1246 1242 1239 1235 1231 1229 1227 1224 1223 1222 1221 1221 1221 1220 1220 1219 1220 1220 1221 1222 1223 1224 1225 1226 1227 1228 1229 1230 1231 1233 1235 1236 1238 1240 1242 1244
1343 1340 1337 1333 1329 1325 1321 1317 1313 1310 1307 1304 1302 1298 1293 1289 1286 1283 1279 1275 1271 1267 1263 1259 1256 1253 1250 1246 1243 1240 1236 1232 1229 1226 1224 1222 1221 1220 1220 1220 1221 1220 1220 1220 1220 1221 1221 1222 1223 1224 1224 1225 1226 1227 1228 1229 1231 1232 1234 1236 1238 1240 1243
1339 1335 1332 1328 1325 1322 1318 1314 1311 1308 1304 1301 1298 1295 1290 1286 1284 1281 1277 1273 1269 1266 1262 1259 1256 1253 1250 1246 1243 1240 1236 1233 1229 1226 1224 1222 1220 1219 1219 1219 1219 1220 1220 1220 1220 1220 1221 1222 1222 1222 1223 1224 1224 1225 1226 1227 1229 1230 1232 1234 1236 1239 1241
1334 1331 1328 1324 1321 1318 1315 1311 1307 1304 1301 1298 1296 1292 1288 1285 1282 1279 1275 1272 1268 1264 1261 1259 1256 1253 1250 1246 1243 1240 1237 1233 1230 1226 1223 1221 1220 1219 1218 1218 1218 1219 1220 1220 1219 1219 1220 1220 1221 1221 1222 1222 1223 1223 1224 1225 1227 1228 1230 1232 1234 1236 1239
1327 1326 1323 1320 1316 1314 1311 1308 1305 1302 1298 1296 1294 1291 1286 1282 1280 1277 1273 1270 1267 1264 1261 1259 1256 1253 1249 1246 1243 1240 1237 1234 1231 1227 1224 1221 1219 1218 1218 1217 1217 1218 1219 1219 1219 1219 1219 1219 1219 1220 1220 1221 1221 1222 1222 1223 1225 1226 1228 1230 1232 1235 1237
1323 1321 1319 1317 1314 1310 1308 1305 1302 1299 1296 1294 1292 1288 1284 1280 1277 1274 1271 1268 1266 1264 1261 1258 1256 1253 1250 1247 1244 1241 1238 1235 1232 1229 1226 1223 1220 1218 1217 1217 1216 1217 1217 1217 1218 1218 1218 1218 1218 1219 1219 1219 1220 1220 1221 1222 1223 1224 1226 1228 1230 1233 1235